Weather History for Hobart, OK

Change the Weather History Date:

Friday, December 27, 2013

  Actual Average Record
Temperature  
Mean Temperature 40 °F -  
Max Temperature 55 °F 47 °F 70 °F (2005)
Min Temperature 26 °F 25 °F 14 °F (2000)
Degree Days  
Heating Degree Days 24    
Moisture  
Dew Point 28 °F    
Average Humidity 68    
Maximum Humidity 88    
Minimum Humidity 38    
Precipitation  
Precipitation 0.00 in - - ()
Sea Level Pressure  
Sea Level Pressure 30.36 in    
Wind  
Wind Speed 9 mph (SW)    
Max Wind Speed 15 mph    
Max Gust Speed -    
Visibility 10 miles    
Events      
Averages and records for this station are not official NWS values.
T = Trace of Precipitation, MM = Missing Value Source: NWS Daily Summary

Daily Weather History Graph

Daily Weather History Graph

Search for Another Location

Airport:

Trip Planner

Search our weather history database for the weather conditions in past years. The results will help you decide how hot, cold, wet, or windy it might be!

Date:

Astronomy

Dec. 27, 2013 Rise Set
Actual Time 7:42 AM CST 5:32 PM CST
Civil Twilight 7:14 AM CST 6:00 PM CST
Nautical Twilight 6:43 AM CST 6:31 PM CST
Astronomical Twilight 6:12 AM CST 7:02 PM CST
Moon 2:23 AM CST 1:37 PM CST
Length of Visible Light 10h 45m
Length of Day
9h 49m
Waning Crescent, 28% of the Moon is Illuminated
Dec 27
Waning Crescent
Jan 1
New
Jan 7
First Quarter
Jan 15
Full
Jan 23
Last Quarter

Hourly Weather History & Observations

Time (CST) Temp. Windchill Dew Point Humidity Pressure Visibility Wind Dir Wind Speed Gust Speed Precip Events Conditions
12:53 AM 34.0 °F 26.6 °F 26.1 °F 73% 30.37 in 10.0 mi SW 9.2 mph - N/A   Clear
1:53 AM 30.0 °F 22.4 °F 26.1 °F 85% 30.37 in 10.0 mi SW 8.1 mph - N/A   Clear
2:53 AM 30.9 °F 21.7 °F 25.0 °F 79% 30.37 in 10.0 mi SSW 11.5 mph - N/A   Clear
3:53 AM 30.9 °F 21.7 °F 25.0 °F 79% 30.37 in 10.0 mi SSW 11.5 mph - N/A   Clear
4:53 AM 30.9 °F 21.7 °F 25.0 °F 79% 30.37 in 10.0 mi SSW 11.5 mph - N/A   Clear
5:53 AM 26.1 °F 19.4 °F 23.0 °F 88% 30.39 in 10.0 mi WSW 5.8 mph - N/A   Clear
6:53 AM 28.0 °F 20.8 °F 24.1 °F 85% 30.39 in 10.0 mi WSW 6.9 mph - N/A   Clear
7:53 AM 30.0 °F - 24.1 °F 79% 30.40 in 10.0 mi Calm Calm - N/A   Clear
8:53 AM 33.1 °F - 27.0 °F 78% 30.40 in 10.0 mi Calm Calm - N/A   Clear
9:53 AM 37.0 °F 34.5 °F 28.0 °F 70% 30.43 in 10.0 mi NNW 3.5 mph - N/A   Clear
10:53 AM 43.0 °F 41.3 °F 28.9 °F 58% 30.41 in 10.0 mi West 3.5 mph - N/A   Clear
11:53 AM 48.0 °F - 30.0 °F 50% 30.40 in 10.0 mi WSW 4.6 mph - N/A   Clear
12:53 PM 52.0 °F - 34.0 °F 50% 30.37 in 10.0 mi SW 4.6 mph - N/A   Clear
1:53 PM 55.0 °F - 33.1 °F 43% 30.34 in 10.0 mi SSW 15.0 mph - N/A   Clear
2:53 PM 55.0 °F - 30.0 °F 38% 30.33 in 10.0 mi SSW 15.0 mph - N/A   Clear
3:53 PM 54.0 °F - 32.0 °F 43% 30.33 in 10.0 mi SSW 15.0 mph - N/A   Clear
4:53 PM 50.0 °F - 36.0 °F 59% 30.33 in 10.0 mi SSW 6.9 mph - N/A   Clear
5:53 PM 43.0 °F 37.7 °F 35.1 °F 74% 30.34 in 10.0 mi South 9.2 mph - N/A   Clear
6:53 PM 39.0 °F - 32.0 °F 76% 30.34 in 10.0 mi North - - N/A   Clear
7:53 PM 37.0 °F 29.3 °F 28.9 °F 73% 30.33 in 10.0 mi South 11.5 mph - N/A   Clear
8:53 PM 37.0 °F 29.3 °F 28.0 °F 70% 30.33 in 10.0 mi SSW 11.5 mph - N/A   Clear
9:53 PM 35.1 °F 26.9 °F 27.0 °F 72% 30.33 in 10.0 mi SSW 11.5 mph - N/A   Clear
10:53 PM 34.0 °F 24.6 °F 26.1 °F 73% 30.31 in 10.0 mi SSW 13.8 mph - N/A   Clear
11:53 PM 36.0 °F 26.7 °F 27.0 °F 70% 30.28 in 10.0 mi SSW 15.0 mph - N/A   Clear